• In Uzbekistan
  • List of Countries
  • For 7 days
  • Water Temperature
  • Satellite Maps
  • Weather Map
  • Weather Widgets
  • user-avatar
    Login

    Hourly Weather Gori

    Today, 21 September, Thursday

    Time Temperature Precipitation Wind Pressure Humidity
    00:00 +19°C° 0 mm 2 mps 701 mmHg 56%
    01:00 +19°C° 0 mm 2 mps 701 mmHg 56%
    02:00 +18°C° 0 mm 2 mps 701 mmHg 55%
    03:00 +19°C° 0 mm 2 mps 701 mmHg 57%
    04:00 +19°C° 0 mm 2 mps 701 mmHg 57%
    05:00 +19°C° 0 mm 2 mps 701 mmHg 56%
    06:00 +20°C° 0 mm 1 mps 701 mmHg 56%
    07:00 +21°C° 0 mm 2 mps 701 mmHg 50%
    08:00 +25°C° 0 mm 2 mps 701 mmHg 43%
    09:00 +28°C° 0 mm 3 mps 701 mmHg 37%
    10:00 +29°C° 0 mm 3 mps 701 mmHg 35%
    11:00 +31°C° 0 mm 3 mps 701 mmHg 32%
    12:00 +33°C° 0 mm 3 mps 701 mmHg 30%
    13:00 +33°C° 0 mm 3 mps 700 mmHg 29%
    14:00 +33°C° 0 mm 3 mps 700 mmHg 29%
    15:00 +34°C° 0 mm 3 mps 700 mmHg 29%
    16:00 +30°C° 0.2 mm 3 mps 699 mmHg 37%
    17:00 +28°C° 0.2 mm 3 mps 699 mmHg 44%
    18:00 +25°C° 0.2 mm 2 mps 699 mmHg 52%
    19:00 +24°C° 0 mm 2 mps 699 mmHg 54%
    20:00 +24°C° 0 mm 2 mps 699 mmHg 57%
    21:00 +23°C° 0 mm 2 mps 699 mmHg 59%
    22:00 +21°C° 0 mm 2 mps 700 mmHg 58%
    23:00 +21°C° 0 mm 2 mps 700 mmHg 57%

    Tomorrow, 22 September, Friday

    Time Temperature Precipitation Wind Pressure Humidity
    00:00 +21°C° 0 mm 2 mps 700 mmHg 56%
    01:00 +20°C° 0 mm 2 mps 700 mmHg 57%
    02:00 +19°C° 0 mm 2 mps 699 mmHg 58%
    03:00 +19°C° 0 mm 2 mps 699 mmHg 58%
    04:00 +18°C° 0 mm 2 mps 699 mmHg 59%
    05:00 +18°C° 0 mm 2 mps 699 mmHg 60%
    06:00 +17°C° 0 mm 2 mps 699 mmHg 60%
    07:00 +20°C° 0 mm 2 mps 699 mmHg 54%
    08:00 +24°C° 0 mm 3 mps 699 mmHg 47%
    09:00 +26°C° 0 mm 3 mps 699 mmHg 40%
    10:00 +28°C° 0 mm 3 mps 699 mmHg 37%
    11:00 +29°C° 0 mm 3 mps 699 mmHg 34%
    12:00 +32°C° 0 mm 4 mps 699 mmHg 31%
    13:00 +32°C° 0 mm 4 mps 699 mmHg 31%
    14:00 +31°C° 0 mm 3 mps 698 mmHg 31%
    15:00 +33°C° 0 mm 3 mps 698 mmHg 30%
    16:00 +29°C° 0.1 mm 2 mps 698 mmHg 38%
    17:00 +27°C° 0.1 mm 2 mps 698 mmHg 46%
    18:00 +24°C° 0.1 mm 1 mps 698 mmHg 54%
    19:00 +23°C° 0.1 mm 1 mps 699 mmHg 58%
    20:00 +22°C° 0.1 mm 1 mps 699 mmHg 62%
    21:00 +21°C° 0.1 mm 1 mps 700 mmHg 67%
    22:00 +21°C° 0 mm 1 mps 700 mmHg 69%
    23:00 +20°C° 0 mm 1 mps 700 mmHg 71%

    Day after tomorrow, 23 September, Saturday

    Time Temperature Precipitation Wind Pressure Humidity
    00:00 +20°C° 0 mm 1 mps 700 mmHg 72%
    01:00 +19°C° 0 mm 1 mps 700 mmHg 72%
    02:00 +19°C° 0 mm 1 mps 700 mmHg 72%
    03:00 +19°C° 0 mm 1 mps 700 mmHg 72%
    04:00 +18°C° 0 mm 1 mps 700 mmHg 70%
    05:00 +18°C° 0 mm 1 mps 700 mmHg 69%
    06:00 +18°C° 0 mm 1 mps 700 mmHg 67%
    07:00 +20°C° 0 mm 1 mps 701 mmHg 58%
    08:00 +23°C° 0 mm 1 mps 701 mmHg 50%
    09:00 +26°C° 0 mm 1 mps 701 mmHg 41%
    10:00 +27°C° 0 mm 2 mps 701 mmHg 38%
    11:00 +29°C° 0 mm 3 mps 701 mmHg 34%
    12:00 +30°C° 0 mm 3 mps 701 mmHg 31%
    13:00 +30°C° 0 mm 3 mps 701 mmHg 31%
    14:00 +30°C° 0 mm 3 mps 701 mmHg 31%
    15:00 +30°C° 0 mm 4 mps 701 mmHg 31%
    16:00 +28°C° 0.2 mm 3 mps 701 mmHg 40%
    17:00 +25°C° 0.2 mm 2 mps 701 mmHg 49%
    18:00 +23°C° 0.2 mm 1 mps 701 mmHg 58%
    19:00 +21°C° 0.7 mm 2 mps 701 mmHg 65%
    20:00 +20°C° 0.7 mm 2 mps 702 mmHg 71%
    21:00 +19°C° 0.7 mm 2 mps 702 mmHg 77%
    22:00 +20°C° 0.3 mm 1 mps 702 mmHg 80%
    23:00 +20°C° 0.3 mm 1 mps 703 mmHg 83%

    24 September, Sunday

    Time Temperature Precipitation Wind Pressure Humidity
    00:00 +19°C° 0.3 mm 1 mps 703 mmHg 86%
    01:00 +19°C° 0 mm 1 mps 703 mmHg 85%
    02:00 +18°C° 0 mm 1 mps 703 mmHg 85%
    03:00 +18°C° 0 mm 1 mps 703 mmHg 84%
    04:00 +16°C° 0 mm 1 mps 703 mmHg 84%
    05:00 +16°C° 0 mm 1 mps 703 mmHg 84%
    06:00 +16°C° 0 mm 1 mps 703 mmHg 84%
    07:00 +19°C° 0 mm 1 mps 703 mmHg 76%
    08:00 +21°C° 0 mm 1 mps 704 mmHg 69%
    09:00 +23°C° 0 mm 1 mps 704 mmHg 61%
    10:00 +24°C° 0 mm 1 mps 704 mmHg 56%
    11:00 +26°C° 0 mm 2 mps 704 mmHg 50%
    12:00 +27°C° 0 mm 2 mps 704 mmHg 45%
    13:00 +27°C° 0 mm 2 mps 704 mmHg 45%
    14:00 +28°C° 0 mm 2 mps 703 mmHg 44%
    15:00 +28°C° 0 mm 2 mps 703 mmHg 44%
    16:00 +26°C° 0 mm 2 mps 703 mmHg 53%
    17:00 +24°C° 0 mm 1 mps 703 mmHg 61%
    18:00 +22°C° 0 mm 1 mps 703 mmHg 70%
    19:00 +21°C° 0 mm 1 mps 703 mmHg 73%
    20:00 +20°C° 0 mm 1 mps 704 mmHg 76%
    21:00 +19°C° 0 mm 1 mps 704 mmHg 80%
    22:00 +19°C° 0 mm 1 mps 704 mmHg 80%
    23:00 +18°C° 0 mm 1 mps 704 mmHg 80%

    25 September, Monday

    Time Temperature Precipitation Wind Pressure Humidity
    00:00 +18°C° 0 mm 1 mps 704 mmHg 80%
    01:00 +18°C° 0 mm 1 mps 704 mmHg 78%
    02:00 +16°C° 0 mm 1 mps 703 mmHg 77%
    03:00 +16°C° 0 mm 1 mps 703 mmHg 76%
    04:00 +16°C° 0 mm 1 mps 703 mmHg 75%
    05:00 +15°C° 0 mm 1 mps 703 mmHg 73%
    06:00 +15°C° 0 mm 1 mps 703 mmHg 71%
    07:00 +18°C° 0 mm 2 mps 703 mmHg 60%
    08:00 +20°C° 0 mm 2 mps 703 mmHg 50%
    09:00 +24°C° 0 mm 2 mps 704 mmHg 39%
    10:00 +25°C° 0 mm 3 mps 703 mmHg 36%
    11:00 +26°C° 0 mm 3 mps 703 mmHg 34%
    12:00 +27°C° 0 mm 3 mps 703 mmHg 32%
    13:00 +28°C° 0 mm 3 mps 703 mmHg 32%
    14:00 +28°C° 0 mm 3 mps 702 mmHg 32%
    15:00 +28°C° 0 mm 3 mps 702 mmHg 33%
    16:00 +26°C° 0 mm 3 mps 702 mmHg 40%
    17:00 +24°C° 0 mm 2 mps 702 mmHg 47%
    18:00 +21°C° 0 mm 2 mps 702 mmHg 55%
    19:00 +20°C° 0 mm 2 mps 702 mmHg 57%
    20:00 +19°C° 0 mm 2 mps 702 mmHg 60%
    21:00 +18°C° 0 mm 2 mps 702 mmHg 62%
    22:00 +17°C° 0 mm 2 mps 702 mmHg 63%
    23:00 +17°C° 0 mm 2 mps 702 mmHg 64%

    26 September, Tuesday

    Time Temperature Precipitation Wind Pressure Humidity
    00:00 +17°C° 0 mm 2 mps 702 mmHg 64%
    01:00 +16°C° 0 mm 2 mps 702 mmHg 65%
    02:00 +16°C° 0 mm 2 mps 702 mmHg 65%
    03:00 +15°C° 0 mm 2 mps 702 mmHg 66%
    04:00 +15°C° 0 mm 2 mps 701 mmHg 66%
    05:00 +15°C° 0 mm 2 mps 701 mmHg 67%
    06:00 +15°C° 0 mm 2 mps 701 mmHg 67%
    07:00 +17°C° 0 mm 3 mps 701 mmHg 64%
    08:00 +18°C° 0 mm 3 mps 701 mmHg 61%
    09:00 +20°C° 0 mm 4 mps 701 mmHg 58%
    10:00 +21°C° 0 mm 4 mps 701 mmHg 55%
    11:00 +22°C° 0 mm 4 mps 701 mmHg 51%
    12:00 +25°C° 0 mm 4 mps 700 mmHg 48%
    13:00 +25°C° 0 mm 4 mps 700 mmHg 48%
    14:00 +25°C° 0 mm 4 mps 700 mmHg 48%
    15:00 +25°C° 0 mm 4 mps 700 mmHg 48%
    16:00 +22°C° 0 mm 3 mps 700 mmHg 56%
    17:00 +21°C° 0 mm 3 mps 699 mmHg 64%
    18:00 +19°C° 0 mm 2 mps 699 mmHg 72%
    19:00 +18°C° 0.1 mm 2 mps 700 mmHg 75%
    20:00 +18°C° 0.1 mm 2 mps 700 mmHg 78%
    21:00 +17°C° 0.1 mm 2 mps 700 mmHg 80%
    22:00 +17°C° 0.1 mm 2 mps 700 mmHg 81%
    23:00 +17°C° 0.1 mm 2 mps 700 mmHg 82%
    Show more